Flag for Germany Weather past 2 weeks in Memmingen, Bavaria, Germany

Now
57 °F

Passing clouds.


Feels Like: 57 °F
Forecast: 35 / 58 °F
Wind: 5 mph from Northeast

Location: Kempten

Current Time: Apr 19, 2015 at 3:14:54 PM

Latest Report: Apr 19, 2015 at 3:00 PM


Visibility: 12 mi

Pressure: 30.00 "Hg

Humidity: 34%

Dew point: 29 °F

Location of MemmingenLocation

Historic Weather in Memmingen — Graph

°F

Memmingen temperature yesterday

Maximum temperature yesterday: 49 °F (at 4:00 PM)
Minimum temperature yesterday: 37 °F (at 10:00 PM)
Average temperature yesterday: 43 °F

Past Weeks' High & Low Weather Summary

 TemperatureHumidityPressure
High72 °F (Apr 15, 3:00 PM)96% (Apr 7, 12:00 AM)30.67 "Hg (Apr 7, 12:00 AM)
Low22 °F (Apr 7, 7:00 AM)17% (Apr 10, 1:00 PM)29.85 "Hg (Apr 16, 7:00 PM)
Average46 °F65%30.26 "Hg
* Reported Apr 4 2:00 PM — Apr 19 2:00 PM, Memmingen, Weather by CustomWeather, © 2015

Note: Actual official high and low records may vary slightly from our data, if they occured in-between our weather recording intervals... More about our weather records

Advertising

Memmingen weather history for previous 24 hours

 ConditionsComfort  
Time TempWeatherWind HumidityBarometerVisibility
2:00 PM
Sun, Apr 19
54 °FSunny.5 mph34%30.03 "Hg16 mi
1:00 PM53 °FSunny.5 mph42%30.04 "Hg25 mi
12:00 PM50 °FSunny.5 mph42%30.06 "Hg16 mi
10:00 AM43 °FSunny.3 mph52%30.09 "Hg16 mi
9:00 AM41 °FSunny.1 mph58%30.11 "Hg25 mi
8:00 AM35 °FSunny.1 mph69%30.15 "Hg19 mi
7:00 AM29 °FSunny.1 mph88%30.17 "Hg12 mi
6:00 AM30 °FClear.No wind86%30.18 "Hg17 mi
4:00 AM30 °FClear.1 mph86%30.22 "Hg13 mi
3:00 AM31 °FClear.1 mph80%30.23 "Hg16 mi
2:00 AM31 °FClear.No wind82%30.25 "Hg13 mi
1:00 AM34 °FClear.1 mph76%30.24 "Hg17 mi
12:00 AM35 °FClear.2 mph72%30.24 "Hg17 mi
10:00 PM
Sat, Apr 18
37 °FClear.2 mph66%30.25 "Hg19 mi
9:00 PM40 °FClear.2 mph60%30.23 "Hg19 mi
8:00 PM44 °FSunny.3 mph46%30.20 "Hg31 mi
7:00 PM47 °FSunny.3 mph41%30.18 "Hg28 mi
6:00 PM47 °FPassing clouds.5 mph37%30.19 "Hg13 mi
4:00 PM49 °FPartly sunny.3 mph44%30.19 "Hg25 mi
3:00 PM47 °FPassing clouds.6 mph44%30.20 "Hg9 mi
Weather by CustomWeather, © 2015

See weather overviewHow to use our weather pages